When you browse on this site, cookies collect data to enhance your experience and personalize the content and advertising you see.
Visit our Privacy Policy to learn more. By continuing to use the site, you agree to this use of cookies and data.
  • Em Portugal
  • Lista de países
  • Para 7 dias
  • Temperatura da água
  • Mapas de satélite
  • Mapa do tempo
  • Widgets de tempo
  • user-avatar
    Iniciar Sessão

    Previsão horária em Recife

    Hoje, 21 Janeiro, Segunda-feira

    Tempo Temperatura Precipitação Vento Pressão Humidade
    00:00 +28°C° 0.1 mm 5 m/s 759 mmHg 82%
    01:00 +28°C° 0.1 mm 5 m/s 759 mmHg 83%
    02:00 +28°C° 0.1 mm 5 m/s 759 mmHg 83%
    03:00 +28°C° 0.1 mm 5 m/s 759 mmHg 83%
    04:00 +27°C° 0.1 mm 4 m/s 759 mmHg 83%
    05:00 +28°C° 0.1 mm 4 m/s 759 mmHg 82%
    06:00 +28°C° 0.1 mm 4 m/s 759 mmHg 81%
    07:00 +28°C° 0.1 mm 4 m/s 759 mmHg 80%
    08:00 +29°C° 0.1 mm 5 m/s 759 mmHg 74%
    09:00 +30°C° 0.1 mm 5 m/s 760 mmHg 67%
    10:00 +33°C° 0.1 mm 5 m/s 760 mmHg 61%
    11:00 +33°C° 0 mm 5 m/s 760 mmHg 58%
    12:00 +34°C° 0 mm 5 m/s 760 mmHg 56%
    13:00 +34°C° 0 mm 6 m/s 759 mmHg 54%
    14:00 +34°C° 0 mm 5 m/s 759 mmHg 55%
    15:00 +34°C° 0 mm 5 m/s 758 mmHg 55%
    16:00 +33°C° 0 mm 5 m/s 758 mmHg 56%
    17:00 +32°C° 0 mm 5 m/s 758 mmHg 61%
    18:00 +30°C° 0 mm 5 m/s 758 mmHg 66%
    19:00 +29°C° 0 mm 5 m/s 758 mmHg 70%
    20:00 +29°C° 0 mm 5 m/s 759 mmHg 72%
    21:00 +28°C° 0 mm 4 m/s 759 mmHg 73%
    22:00 +28°C° 0 mm 4 m/s 760 mmHg 75%
    23:00 +28°C° 0 mm 4 m/s 760 mmHg 75%

    Amanhã, 22 Janeiro, Terça-feira

    Tempo Temperatura Precipitação Vento Pressão Humidade
    00:00 +28°C° 0 mm 4 m/s 760 mmHg 76%
    01:00 +27°C° 0 mm 3 m/s 759 mmHg 77%
    02:00 +27°C° 0.1 mm 3 m/s 759 mmHg 77%
    03:00 +27°C° 0.1 mm 3 m/s 759 mmHg 77%
    04:00 +27°C° 0.1 mm 3 m/s 758 mmHg 78%
    05:00 +27°C° 0.1 mm 3 m/s 758 mmHg 77%
    06:00 +27°C° 0.1 mm 3 m/s 758 mmHg 77%
    07:00 +27°C° 0.1 mm 3 m/s 759 mmHg 76%
    08:00 +29°C° 0 mm 3 m/s 759 mmHg 68%
    09:00 +32°C° 0 mm 4 m/s 759 mmHg 61%
    10:00 +33°C° 0 mm 4 m/s 760 mmHg 53%
    11:00 +34°C° 0 mm 4 m/s 759 mmHg 52%
    12:00 +34°C° 0 mm 4 m/s 759 mmHg 50%
    13:00 +35°C° 0 mm 4 m/s 759 mmHg 48%
    14:00 +35°C° 0 mm 4 m/s 758 mmHg 50%
    15:00 +34°C° 0 mm 4 m/s 758 mmHg 52%
    16:00 +34°C° 0 mm 4 m/s 757 mmHg 54%
    17:00 +33°C° 0 mm 4 m/s 757 mmHg 59%
    18:00 +30°C° 0 mm 4 m/s 757 mmHg 65%
    19:00 +29°C° 0 mm 3 m/s 758 mmHg 70%
    20:00 +29°C° 0 mm 3 m/s 758 mmHg 72%
    21:00 +29°C° 0 mm 3 m/s 759 mmHg 74%
    22:00 +28°C° 0 mm 2 m/s 759 mmHg 76%
    23:00 +28°C° 0 mm 2 m/s 759 mmHg 77%

    Depois de amanhã, 23 Janeiro, Quarta-feira

    Tempo Temperatura Precipitação Vento Pressão Humidade
    00:00 +28°C° 0 mm 2 m/s 759 mmHg 78%
    01:00 +28°C° 0 mm 2 m/s 759 mmHg 79%
    02:00 +27°C° 0 mm 2 m/s 758 mmHg 80%
    03:00 +27°C° 0 mm 2 m/s 758 mmHg 80%
    04:00 +27°C° 0 mm 2 m/s 758 mmHg 81%
    05:00 +27°C° 0 mm 2 m/s 758 mmHg 80%
    06:00 +27°C° 0 mm 2 m/s 758 mmHg 79%
    07:00 +28°C° 0 mm 3 m/s 758 mmHg 78%
    08:00 +29°C° 0 mm 3 m/s 759 mmHg 71%
    09:00 +30°C° 0 mm 3 m/s 759 mmHg 65%
    10:00 +31°C° 0 mm 3 m/s 759 mmHg 58%
    11:00 +33°C° 0 mm 4 m/s 759 mmHg 54%
    12:00 +34°C° 0 mm 4 m/s 759 mmHg 51%
    13:00 +35°C° 0 mm 4 m/s 759 mmHg 47%
    14:00 +34°C° 0 mm 4 m/s 758 mmHg 48%
    15:00 +34°C° 0 mm 4 m/s 757 mmHg 50%
    16:00 +34°C° 0 mm 4 m/s 757 mmHg 51%
    17:00 +32°C° 0 mm 4 m/s 757 mmHg 57%
    18:00 +30°C° 0 mm 4 m/s 757 mmHg 62%
    19:00 +29°C° 0 mm 4 m/s 758 mmHg 68%
    20:00 +28°C° 0 mm 3 m/s 758 mmHg 71%
    21:00 +28°C° 0 mm 3 m/s 759 mmHg 73%
    22:00 +28°C° 0 mm 3 m/s 759 mmHg 76%
    23:00 +27°C° 0 mm 3 m/s 759 mmHg 77%

    24 Janeiro, Quinta-feira

    Tempo Temperatura Precipitação Vento Pressão Humidade
    00:00 +27°C° 0 mm 3 m/s 758 mmHg 78%
    01:00 +27°C° 0 mm 2 m/s 758 mmHg 79%
    02:00 +27°C° 0 mm 2 m/s 758 mmHg 80%
    03:00 +27°C° 0 mm 2 m/s 757 mmHg 81%
    04:00 +26°C° 0 mm 2 m/s 757 mmHg 82%
    05:00 +27°C° 0 mm 2 m/s 757 mmHg 82%
    06:00 +27°C° 0 mm 3 m/s 757 mmHg 81%
    07:00 +27°C° 0 mm 3 m/s 757 mmHg 81%
    08:00 +28°C° 0 mm 3 m/s 758 mmHg 74%
    09:00 +30°C° 0 mm 4 m/s 758 mmHg 66%
    10:00 +33°C° 0 mm 4 m/s 758 mmHg 59%
    11:00 +33°C° 0.2 mm 4 m/s 758 mmHg 57%
    12:00 +34°C° 0.2 mm 4 m/s 758 mmHg 54%
    13:00 +35°C° 0.2 mm 5 m/s 757 mmHg 51%
    14:00 +34°C° 0.2 mm 5 m/s 757 mmHg 53%
    15:00 +34°C° 0.2 mm 5 m/s 756 mmHg 55%
    16:00 +33°C° 0.2 mm 5 m/s 756 mmHg 57%
    17:00 +32°C° 0 mm 5 m/s 756 mmHg 62%
    18:00 +30°C° 0 mm 5 m/s 756 mmHg 67%
    19:00 +29°C° 0 mm 4 m/s 757 mmHg 72%
    20:00 +29°C° 0 mm 4 m/s 757 mmHg 74%
    21:00 +29°C° 0 mm 4 m/s 757 mmHg 76%
    22:00 +28°C° 0 mm 3 m/s 758 mmHg 78%
    23:00 +28°C° 0 mm 3 m/s 757 mmHg 79%

    25 Janeiro, Sexta-feira

    Tempo Temperatura Precipitação Vento Pressão Humidade
    00:00 +28°C° 0 mm 3 m/s 757 mmHg 79%
    01:00 +28°C° 0 mm 3 m/s 757 mmHg 80%
    02:00 +28°C° 0.1 mm 3 m/s 757 mmHg 80%
    03:00 +28°C° 0.1 mm 3 m/s 756 mmHg 81%
    04:00 +27°C° 0.1 mm 3 m/s 756 mmHg 81%
    05:00 +27°C° 0.1 mm 3 m/s 757 mmHg 81%
    06:00 +27°C° 0.1 mm 3 m/s 757 mmHg 81%
    07:00 +27°C° 0.1 mm 3 m/s 757 mmHg 81%
    08:00 +29°C° 0.1 mm 4 m/s 758 mmHg 76%
    09:00 +30°C° 0.1 mm 4 m/s 758 mmHg 71%
    10:00 +32°C° 0.1 mm 5 m/s 758 mmHg 66%
    11:00 +32°C° 0.1 mm 5 m/s 758 mmHg 64%
    12:00 +33°C° 0.1 mm 5 m/s 757 mmHg 63%
    13:00 +33°C° 0.1 mm 5 m/s 757 mmHg 61%
    14:00 +33°C° 0 mm 5 m/s 757 mmHg 62%
    15:00 +33°C° 0 mm 6 m/s 756 mmHg 62%
    16:00 +32°C° 0 mm 6 m/s 756 mmHg 63%
    17:00 +32°C° 0 mm 5 m/s 756 mmHg 66%
    18:00 +30°C° 0 mm 5 m/s 757 mmHg 70%
    19:00 +29°C° 0 mm 4 m/s 757 mmHg 74%
    20:00 +28°C° 0 mm 4 m/s 757 mmHg 75%
    21:00 +28°C° 0 mm 4 m/s 758 mmHg 77%
    22:00 +28°C° 0 mm 3 m/s 758 mmHg 78%
    23:00 +28°C° 0 mm 3 m/s 758 mmHg 79%

    26 Janeiro, Sábado

    Tempo Temperatura Precipitação Vento Pressão Humidade
    00:00 +28°C° 0 mm 3 m/s 758 mmHg 79%
    01:00 +27°C° 0 mm 3 m/s 758 mmHg 80%
    02:00 +27°C° 0 mm 3 m/s 758 mmHg 79%
    03:00 +27°C° 0 mm 2 m/s 758 mmHg 79%
    04:00 +27°C° 0 mm 2 m/s 757 mmHg 79%
    05:00 +27°C° 0 mm 2 m/s 758 mmHg 77%
    06:00 +27°C° 0 mm 2 m/s 758 mmHg 76%
    07:00 +27°C° 0 mm 2 m/s 758 mmHg 74%
    08:00 +29°C° 0 mm 2 m/s 759 mmHg 67%
    09:00 +30°C° 0 mm 2 m/s 759 mmHg 60%
    10:00 +32°C° 0 mm 2 m/s 759 mmHg 53%
    11:00 +34°C° 0 mm 3 m/s 759 mmHg 51%
    12:00 +35°C° 0 mm 3 m/s 758 mmHg 49%
    13:00 +35°C° 0 mm 4 m/s 758 mmHg 47%
    14:00 +35°C° 0 mm 4 m/s 758 mmHg 50%
    15:00 +35°C° 0 mm 5 m/s 757 mmHg 53%
    16:00 +34°C° 0 mm 5 m/s 757 mmHg 55%
    17:00 +33°C° 0 mm 5 m/s 757 mmHg 61%
    18:00 +32°C° 0 mm 5 m/s 757 mmHg 67%
    19:00 +29°C° 0 mm 5 m/s 758 mmHg 72%
    20:00 +29°C° 0.1 mm 5 m/s 758 mmHg 74%
    21:00 +29°C° 0.1 mm 5 m/s 758 mmHg 76%
    22:00 +29°C° 0.1 mm 4 m/s 759 mmHg 78%
    23:00 +28°C° 0.7 mm 4 m/s 759 mmHg 80%
    Mostrar mais